Weather History for Andrews, TX

Change the Weather History Date:

Thursday, November 8, 2012

  Actual Average (KMAF) Record (KMAF)
Temperature  
Mean Temperature 70 °F 56 °F  
Max Temperature 85 °F 70 °F 89 °F (1988)
Min Temperature 54 °F 42 °F 22 °F (1938)
Degree Days  
Heating Degree Days 0 9  
Month to date heating degree days 64  
Since 1 July heating degree days 173  
Cooling Degree Days 4    
Growing Degree Days 20 (Base 50)    
Moisture  
Dew Point 45 °F    
Average Humidity 49    
Maximum Humidity 80    
Minimum Humidity 14    
Precipitation  
Precipitation 0.00 in 0.02 in 0.33 in (1937)
Month to date precipitation 0.21  
Year to date precipitation 13.52  
Snow  
Snow - - - ()
Month to date snowfall  
Since 1 July snowfall  
Since 1 September snowfall  
Snow Depth -    
Sea Level Pressure  
Sea Level Pressure 29.99 in    
Wind  
Wind Speed 11 mph ()    
Max Wind Speed 17 mph    
Max Gust Speed 23 mph    
Visibility 10.0 miles    
Events      
T = Trace of Precipitation, MM = Missing Value Source: Averaged Metar Reports

Daily Weather History Graph

Daily Weather History Graph

Search for Another Location

Airport:

Trip Planner

Search our weather history database for the weather conditions in past years. The results will help you decide how hot, cold, wet, or windy it might be!

Date:

Astronomy

Nov. 08, 2012 Rise Set
Actual Time 7:13 AM CST 5:53 PM CST
Civil Twilight 6:47 AM CST 6:19 PM CST
Nautical Twilight 6:18 AM CST 6:48 PM CST
Astronomical Twilight 5:49 AM CST 7:17 PM CST
Moon 1:30 AM CST (11/8) 2:18 PM CST (11/8)
Length of Visible Light 11h 31m
Length of Day
10h 40m
Waning Crescent, 32% of the Moon is Illuminated
Nov 8
Waning Crescent
Nov 13
New
Nov 20
First Quarter
Nov 28
Full
Dec 6
Last Quarter

Hourly Weather History & Observations

Time (CST) Temp. Dew Point Humidity Pressure Visibility Wind Dir Wind Speed Gust Speed Precip Events Conditions
12:15 AM 60.8 °F 49.6 °F 67% 30.03 in 10.0 mi SSW 12.7 mph 19.6 mph N/A   Clear
12:35 AM 61.0 °F 50.2 °F 68% 30.03 in 10.0 mi SSW 13.8 mph 19.6 mph N/A   Clear
12:55 AM 60.8 °F 50.4 °F 68% 30.03 in 10.0 mi SSW 13.8 mph - N/A   Clear
1:15 AM 60.8 °F 50.4 °F 68% 30.03 in 10.0 mi SSW 12.7 mph 20.7 mph N/A   Clear
1:35 AM 60.8 °F 50.5 °F 69% 30.03 in 10.0 mi SSW 13.8 mph 18.4 mph N/A   Clear
1:55 AM 60.6 °F 50.4 °F 69% 30.03 in 10.0 mi SSW 13.8 mph 20.7 mph N/A   Clear
2:35 AM 59.9 °F 50.0 °F 70% 30.02 in 10.0 mi SSW 12.7 mph - N/A   Clear
2:55 AM 59.4 °F 49.8 °F 71% 30.01 in 10.0 mi SSW 12.7 mph 18.4 mph N/A   Clear
3:15 AM 59.2 °F 49.6 °F 71% 30.01 in 10.0 mi SSW 12.7 mph 17.3 mph N/A   Clear
3:35 AM 58.5 °F 49.5 °F 72% 30.01 in 10.0 mi SSW 11.5 mph - N/A   Clear
3:55 AM 57.7 °F 49.5 °F 74% 30.00 in 10.0 mi SSW 11.5 mph - N/A   Clear
4:15 AM 57.2 °F 49.3 °F 75% 30.01 in 10.0 mi SSW 9.2 mph - N/A   Clear
4:35 AM 56.1 °F 49.1 °F 77% 30.01 in 10.0 mi SSW 8.1 mph - N/A   Clear
4:55 AM 55.6 °F 49.1 °F 79% 30.01 in 10.0 mi SSW 8.1 mph - N/A   Clear
5:15 AM 55.4 °F 49.1 °F 79% 30.01 in 10.0 mi SSW 9.2 mph - N/A   Clear
5:35 AM 54.7 °F 48.6 °F 80% 30.02 in 10.0 mi SSW 9.2 mph - N/A   Clear
5:55 AM 54.9 °F 48.6 °F 79% 30.02 in 10.0 mi SSW 9.2 mph - N/A   Clear
6:15 AM 54.9 °F 48.4 °F 79% 30.02 in 10.0 mi SSW 6.9 mph - N/A   Clear
6:35 AM 54.5 °F 48.4 °F 80% 30.02 in 10.0 mi SSW 9.2 mph - N/A   Clear
6:55 AM 54.3 °F 48.4 °F 80% 30.02 in 10.0 mi SSW 9.2 mph - N/A   Clear
7:15 AM 54.9 °F 48.7 °F 80% 30.03 in 10.0 mi SSW 10.4 mph - N/A   Clear
7:35 AM 55.4 °F 49.1 °F 79% 30.03 in 10.0 mi SSW 10.4 mph - N/A   Clear
7:55 AM 56.3 °F 49.1 °F 77% 30.03 in 10.0 mi SSW 11.5 mph - N/A   Clear
8:15 AM 57.7 °F 49.5 °F 74% 30.04 in 10.0 mi SSW 11.5 mph 17.3 mph N/A   Clear
8:35 AM 59.2 °F 49.5 °F 70% 30.05 in 10.0 mi SSW 11.5 mph - N/A   Clear
8:55 AM 59.9 °F 49.5 °F 68% 30.05 in 10.0 mi SSW 13.8 mph - N/A   Clear
9:15 AM 62.8 °F 49.3 °F 61% 30.05 in 10.0 mi SSW 11.5 mph - N/A   Clear
9:35 AM 66.4 °F 47.3 °F 50% 30.05 in 10.0 mi SSW 11.5 mph - N/A   Clear
9:55 AM 70.0 °F 46.2 °F 43% 30.05 in 10.0 mi SSW 13.8 mph - N/A   Clear
10:15 AM 71.8 °F 45.3 °F 39% 30.06 in 10.0 mi SW 13.8 mph - N/A   Clear
10:35 AM 68.9 °F 45.9 °F 44% 30.06 in 10.0 mi SW 9.2 mph - N/A   Clear
10:55 AM 71.6 °F 43.7 °F 37% 30.05 in 10.0 mi WSW 9.2 mph - N/A   Clear
11:15 AM 75.4 °F 42.8 °F 31% 30.04 in 10.0 mi SW 9.2 mph - N/A   Clear
11:35 AM 78.3 °F 41.9 °F 27% 30.03 in 10.0 mi SW 10.4 mph - N/A   Clear
11:55 AM 79.9 °F 40.8 °F 25% 30.03 in 10.0 mi SW 11.5 mph - N/A   Clear
12:15 PM 81.1 °F 37.6 °F 21% 30.01 in 10.0 mi SW 11.5 mph 18.4 mph N/A   Clear
12:55 PM 83.1 °F 38.1 °F 20% 29.98 in 10.0 mi SSW 13.8 mph 19.6 mph N/A   Clear
1:15 PM 84.0 °F 38.1 °F 20% 29.97 in 10.0 mi SW 13.8 mph 17.3 mph N/A   Clear
1:35 PM 84.6 °F 35.2 °F 17% 29.96 in 10.0 mi WSW 10.4 mph 21.9 mph N/A   Clear
1:55 PM 83.7 °F 34.3 °F 17% 29.96 in 10.0 mi WSW 12.7 mph - N/A   Clear
2:15 PM 85.8 °F 33.6 °F 15% 29.95 in 10.0 mi WSW 13.8 mph - N/A   Clear
2:35 PM 85.5 °F 33.4 °F 16% 29.94 in 10.0 mi SW 15.0 mph 20.7 mph N/A   Clear
2:55 PM 85.8 °F 32.4 °F 15% 29.94 in 10.0 mi SSW 15.0 mph - N/A   Clear
3:15 PM 84.6 °F 30.7 °F 14% 29.93 in 10.0 mi SSW 12.7 mph 17.3 mph N/A   Clear
3:35 PM 82.2 °F 30.4 °F 15% 29.93 in 10.0 mi SSW 12.7 mph 18.4 mph N/A   Clear
3:55 PM 82.8 °F 32.7 °F 16% 29.93 in 10.0 mi SSW 12.7 mph 17.3 mph N/A   Clear
4:15 PM 82.4 °F 34.3 °F 18% 29.93 in 10.0 mi SSW 12.7 mph - N/A   Clear
4:35 PM 81.5 °F 33.6 °F 18% 29.93 in 10.0 mi SSW 10.4 mph 16.1 mph N/A   Clear
4:55 PM 80.8 °F 35.6 °F 20% 29.92 in 10.0 mi South 6.9 mph - N/A   Clear
5:15 PM 79.0 °F 35.1 °F 20% 29.92 in 10.0 mi South 6.9 mph - N/A   Clear
5:35 PM 77.4 °F 37.4 °F 24% 29.92 in 10.0 mi South 9.2 mph - N/A   Clear
5:55 PM 76.6 °F 41.9 °F 29% 29.93 in 10.0 mi South 10.4 mph - N/A   Clear
6:15 PM 75.4 °F 42.4 °F 31% 29.93 in 10.0 mi South 11.5 mph - N/A   Clear
6:35 PM 74.5 °F 42.8 °F 32% 29.93 in 10.0 mi South 10.4 mph - N/A   Clear
6:55 PM 72.3 °F 43.2 °F 35% 29.94 in 10.0 mi South 9.2 mph - N/A   Clear
7:15 PM 71.6 °F 44.1 °F 37% 29.95 in 10.0 mi South 9.2 mph - N/A   Clear
7:35 PM 70.5 °F 44.4 °F 39% 29.95 in 10.0 mi South 11.5 mph - N/A   Clear
7:55 PM 70.2 °F 44.8 °F 40% 29.96 in 10.0 mi South 9.2 mph - N/A   Clear
8:15 PM 69.4 °F 45.7 °F 42% 29.96 in 10.0 mi South 10.4 mph 16.1 mph N/A   Clear
8:35 PM 68.9 °F 46.4 °F 44% 29.96 in 10.0 mi South 9.2 mph - N/A   Clear
8:55 PM 68.2 °F 47.5 °F 47% 29.96 in 10.0 mi South 10.4 mph - N/A   Clear
9:15 PM 68.0 °F 49.1 °F 51% 29.96 in 10.0 mi South 11.5 mph 18.4 mph N/A   Clear
9:35 PM 68.0 °F 50.7 °F 54% 29.96 in 10.0 mi South 13.8 mph 19.6 mph N/A   Clear
9:55 PM 67.6 °F 51.6 °F 56% 29.96 in 10.0 mi South 11.5 mph 19.6 mph N/A   Clear
10:15 PM 67.3 °F 51.8 °F 58% 29.96 in 10.0 mi South 13.8 mph 20.7 mph N/A   Clear
10:35 PM 66.7 °F 51.8 °F 59% 29.97 in 10.0 mi SSW 13.8 mph 21.9 mph N/A   Clear
10:55 PM 66.4 °F 51.8 °F 59% 29.97 in 10.0 mi SSW 17.3 mph 23.0 mph N/A   Clear
11:15 PM 66.0 °F 51.8 °F 60% 29.97 in 10.0 mi South 13.8 mph 20.7 mph N/A   Clear
11:35 PM 65.7 °F 52.0 °F 61% 29.97 in 10.0 mi South 15.0 mph - N/A   Clear
11:55 PM 65.5 °F 52.2 °F 62% 29.97 in 10.0 mi SSW 16.1 mph 23.0 mph N/A   Clear